Overview Statistics Trail Chart Weather Telemetry Raw packets
 

This is the latest recevied weather packets stored in our database for station/object K5BOU. If no packets are shown the sender has not sent any weather packets the latest 10 day(s).

<< 17 18 19 20 21 22 23 >>
Time Temp. Humidity Pressure Rain* Wind** Luminosity Snow
1788547085 26.67° C 99% 1013.2 hPa 0 mm - 150 W/m² -
1788546780 26.11° C 99% 1013.4 hPa 0 mm - 115 W/m² -
1788546475 25.56° C 99% 1013.5 hPa 0 mm - 84 W/m² -
1788546170 25.56° C 99% 1013.8 hPa 0 mm - 44 W/m² -
1788545866 25.56° C 99% 1013.4 hPa 0 mm - 65 W/m² -
1788545566 25.56° C 99% 1013.4 hPa 0 mm - 103 W/m² -
1788545261 25.56° C 99% 1013.4 hPa 0 mm - 117 W/m² -
1788544957 26.11° C 99% 1013.4 hPa 0 mm - 136 W/m² -
1788544655 26.11° C 99% 1013.3 hPa 0 mm - 160 W/m² -
1788544354 26.11° C 99% 1013.4 hPa 0 mm - 184 W/m² -
1788544049 26.11° C 99% 1013.5 hPa 0 mm - 200 W/m² -
1788543745 26.11° C 99% 1013.3 hPa 0 mm - 207 W/m² -
1788543441 26.11° C 99% 1013.2 hPa 0 mm - 209 W/m² -
1788543141 26.67° C 99% 1013.1 hPa 0 mm - 205 W/m² -
1788542838 26.11° C 99% 1013.4 hPa 0 mm - 178 W/m² -
1788542536 26.11° C 99% 1013.5 hPa 0 mm - 146 W/m² -
1788542232 25.56° C 99% 1013.6 hPa 0 mm - 125 W/m² -
1788541927 25.56° C 99% 1013.6 hPa 0 mm - 117 W/m² -
1788541623 25° C 99% 1013.6 hPa 0 mm - 105 W/m² -
1788541343 25° C 99% 1013.6 hPa 0 mm - 87 W/m² -
1788541017 24.44° C 99% 1013.5 hPa 0 mm - 73 W/m² -
1788540717 25° C 99% 1013.5 hPa 0 mm - 67 W/m² -
1788540412 25° C 99% 1013.4 hPa 0 mm - 62 W/m² -
1788540107 25° C 99% 1013.5 hPa 0 mm - 55 W/m² -
1788539803 24.44° C 99% 1013.5 hPa 0 mm - 46 W/m² -

* Rain latest hour (hover to see other rain measurements)
** Current wind speed in m/s (hover to see current wind gust speed)